Date,TemperatureHighF,TemperatureAvgF,TemperatureLowF,DewpointHighF,DewpointAvgF,DewpointLowF,HumidityHigh,HumidityAvg,HumidityLow,PressureMaxIn,PressureMinIn,WindSpeedMaxMPH,WindSpeedAvgMPH,GustSpeedMaxMPH,PrecipitationSumIn
2013-1-1,23,14,8,17,11,5,93,87,76,0.00,40.00,5,2,7,0.01
2013-1-2,20,18,17,18,16,15,93,92,89,0.00,40.00,2,0,3,0.01
2013-1-3,23,18,15,20,15,13,92,90,87,0.00,40.00,6,2,7,0.00
2013-1-4,29,19,16,25,16,14,93,91,82,0.00,40.00,7,3,10,0.00
2013-1-5,30,24,20,27,22,18,97,94,88,0.00,40.00,9,3,13,0.03
2013-1-6,24,23,22,23,22,21,96,95,93,0.00,40.00,10,5,14,0.01
2013-1-7,27,24,22,26,23,21,98,95,92,0.00,40.00,2,0,4,0.00
2013-1-8,33,30,26,33,28,22,100,93,75,0.00,40.00,18,7,24,0.09
2013-1-9,39,35,25,35,29,17,100,81,64,0.00,40.00,24,13,32,0.35
2013-1-10,30,25,19,29,15,9,98,68,54,0.00,40.00,34,21,43,0.02
2013-1-11,23,20,16,12,10,7,70,63,57,0.00,40.00,29,20,41,0.00
2013-1-12,18,14,10,8,6,5,81,72,61,0.00,40.00,24,17,31,0.00
2013-1-13,21,15,12,11,9,7,85,76,61,0.00,40.00,15,7,20,0.00
2013-1-14,24,17,12,18,14,9,93,86,73,0.00,40.00,8,4,10,0.00
2013-1-15,20,15,8,18,13,5,93,90,87,0.00,40.00,8,4,12,0.00
2013-1-16,24,21,19,23,20,17,95,94,93,0.00,40.00,5,2,7,0.00
2013-1-17,22,20,17,20,18,15,94,93,92,0.00,40.00,2,1,3,0.00
2013-1-18,21,9,20,19,-72,-100,94,22,94,0.00,40.00,4,2,0,0.00
2013-1-19,21,19,15,20,18,12,95,93,89,0.00,40.00,0,0,0,0.00
2013-1-20,32,19,14,28,17,11,93,90,82,0.00,40.00,4,1,7,0.02
2013-1-21,20,10,1,14,6,-3,90,82,70,0.00,40.00,7,3,10,0.01
2013-1-22,17,12,4,14,8,0,91,86,83,0.00,40.00,4,2,7,0.01
2013-1-23,27,22,15,26,21,13,97,94,90,0.00,40.00,9,4,11,0.00
2013-1-24,23,22,19,21,20,18,95,94,90,0.00,40.00,9,4,12,0.00
2013-1-25,31,27,22,29,26,21,100,96,90,0.00,40.00,9,3,12,0.09
2013-1-26,31,27,24,29,26,23,99,96,88,0.00,40.00,8,5,10,0.04
2013-1-27,26,25,24,26,24,22,98,96,88,0.00,40.00,11,6,15,0.01
2013-1-28,28,25,23,26,24,22,98,95,87,0.00,40.00,4,1,9,0.00
2013-1-29,36,28,23,30,25,21,98,88,66,0.00,40.00,10,3,16,0.03
2013-1-30,39,29,20,30,24,19,96,83,61,0.00,40.00,7,4,12,0.01
2013-1-31,38,31,26,34,28,22,96,87,78,0.00,40.00,9,5,15,0.00
2013-2-1,43,31,22,33,26,21,98,83,56,0.00,40.00,9,3,10,0.00
2013-2-2,41,30,22,30,26,19,99,85,63,0.00,40.00,6,4,9,0.00
2013-2-3,31,29,25,31,28,25,100,99,96,0.00,40.00,8,4,11,0.01
2013-2-4,32,30,28,32,30,28,100,99,97,0.00,40.00,10,7,14,0.01
2013-2-5,33,31,27,32,30,26,100,98,94,0.00,40.00,11,8,19,0.01
2013-2-6,36,32,27,33,29,24,100,89,78,0.00,40.00,11,8,15,0.01
2013-2-7,49,34,26,39,30,25,100,87,61,0.00,40.00,9,4,15,0.01
2013-2-8,37,29,24,28,22,18,99,75,55,0.00,40.00,15,10,19,0.00
2013-2-9,40,31,24,28,23,17,85,71,60,0.00,40.00,15,9,20,0.00
2013-2-10,41,33,28,28,24,20,79,68,54,0.00,40.00,12,8,15,0.00
2013-2-11,33,28,21,28,25,20,98,91,77,0.00,40.00,6,4,10,0.00
2013-2-12,34,30,27,31,29,27,100,95,82,0.00,40.00,14,8,22,0.00
2013-2-13,46,35,25,30,23,16,85,62,40,0.00,40.00,9,6,22,0.00
2013-2-14,50,33,25,30,23,16,81,67,44,0.00,40.00,8,4,13,0.00
2013-2-15,42,32,24,34,25,18,92,77,60,0.00,40.00,9,4,12,0.00
2013-2-16,36,32,27,32,29,24,95,91,84,0.00,40.00,12,6,16,0.00
2013-2-17,46,32,23,30,24,18,96,73,42,0.00,40.00,8,5,11,0.00
2013-2-18,34,28,24,29,24,19,96,84,68,0.00,40.00,7,4,9,0.00
2013-2-19,34,30,24,29,26,18,98,85,67,0.00,40.00,20,13,29,0.02
2013-2-20,37,28,21,24,17,13,75,64,46,0.00,40.00,19,7,23,0.01
2013-2-21,33,27,22,27,22,16,88,83,69,0.00,40.00,13,8,16,0.00
2013-2-22,37,32,28,33,27,21,89,83,66,0.00,40.00,27,16,38,0.00
2013-2-23,44,33,24,26,20,15,71,58,45,0.00,40.00,14,6,24,0.00
2013-2-24,33,30,27,28,22,15,84,72,53,0.00,40.00,15,8,18,0.00
2013-2-25,38,32,29,32,26,16,100,81,47,0.00,40.00,15,11,22,0.01
2013-2-26,38,30,23,26,21,15,75,68,56,0.00,40.00,13,7,17,0.01
2013-2-27,41,33,26,29,25,20,87,71,53,0.00,40.00,13,7,15,0.00
2013-2-28,38,34,29,35,32,26,100,89,72,0.00,40.00,10,6,15,0.07
2013-3-1,48,40,35,42,37,33,100,89,62,0.00,40.00,16,10,22,0.02
2013-3-2,42,40,38,39,35,22,95,84,53,0.00,40.00,16,11,24,0.00
2013-3-3,46,35,28,23,19,13,71,51,34,0.00,40.00,17,10,24,0.00
2013-3-4,40,32,27,23,21,19,74,62,47,0.00,40.00,12,7,17,0.00
2013-3-5,37,33,28,27,22,18,79,66,53,0.00,40.00,11,7,15,0.00
2013-3-6,33,31,30,32,31,27,100,99,79,0.00,40.00,17,12,23,0.10
2013-3-7,45,34,30,37,33,30,100,96,71,0.00,40.00,8,4,11,0.26
2013-3-8,51,34,29,34,31,28,100,88,48,0.00,40.00,12,8,16,0.01
2013-3-9,47,38,27,29,27,24,90,67,45,0.00,40.00,10,7,14,0.00
2013-3-10,41,37,34,30,28,26,79,70,63,0.00,40.00,11,7,16,0.00
2013-3-11,46,37,28,26,22,17,83,55,36,0.00,40.00,16,8,21,0.00
2013-3-12,54,43,36,39,33,25,89,69,55,0.00,40.00,15,10,21,0.00
2013-3-13,54,46,41,42,39,35,87,76,64,0.00,40.00,16,11,24,0.00
2013-3-14,54,48,44,45,39,18,90,74,26,0.00,40.00,20,10,31,0.00
2013-3-15,56,46,33,37,30,24,86,56,35,0.00,40.00,14,7,21,0.00
2013-3-16,49,41,35,35,29,17,86,62,44,0.00,40.00,23,10,33,0.00
2013-3-17,44,37,30,17,13,9,49,37,23,0.00,40.00,23,15,33,0.00
2013-3-18,44,33,26,24,17,8,77,53,30,0.00,40.00,26,11,37,0.00
2013-3-19,44,34,23,32,19,11,100,54,34,0.00,40.00,16,8,26,0.01
2013-3-20,47,37,32,43,34,26,100,90,52,0.00,40.00,25,12,35,0.34
2013-3-21,42,34,25,27,16,11,79,49,30,0.00,40.00,19,11,27,0.02
2013-3-22,39,29,22,21,16,11,79,59,31,0.00,40.00,17,9,23,0.00
2013-3-23,41,32,23,18,16,11,76,54,29,0.00,40.00,12,8,17,0.00
2013-3-24,43,34,24,22,17,13,69,50,38,0.00,40.00,10,6,24,0.00
2013-3-25,48,37,26,23,17,7,65,45,30,0.00,40.00,8,4,16,0.00
2013-3-26,53,40,28,26,20,16,66,46,30,0.00,40.00,10,6,17,0.00
2013-3-27,54,43,34,30,26,19,68,52,37,0.00,40.00,11,6,15,0.00
2013-3-28,57,51,42,39,34,29,74,54,37,0.00,40.00,9,6,19,0.00
2013-3-29,60,47,33,36,31,26,90,58,28,0.00,40.00,9,5,17,0.00
2013-3-30,62,52,41,33,29,-100,67,44,28,0.00,40.00,13,7,18,0.00
2013-3-31,68,54,37,34,31,25,73,45,24,0.00,40.00,15,8,20,0.00
2013-4-1,70,60,48,35,32,29,49,36,25,0.00,40.00,18,9,24,0.00
2013-4-2,66,54,44,37,31,26,69,43,25,0.00,40.00,12,7,18,0.00
2013-4-3,63,52,41,36,32,26,60,48,33,0.00,40.00,17,9,22,0.00
2013-4-4,54,49,45,47,40,32,100,74,54,0.00,40.00,15,7,22,0.16
2013-4-5,57,49,42,46,40,35,100,77,48,0.00,40.00,18,13,26,0.06
2013-4-6,54,46,41,42,33,24,96,63,31,0.00,40.00,24,15,38,0.03
2013-4-7,44,38,33,40,33,26,100,85,54,0.00,40.00,12,8,20,0.37
2013-4-8,48,39,34,39,35,31,100,85,61,0.00,40.00,12,6,18,0.02
2013-4-9,51,44,36,37,34,28,95,69,53,0.00,40.00,13,8,20,0.00
2013-4-10,57,48,40,46,34,21,82,61,32,0.00,40.00,30,16,47,0.00
2013-4-11,53,44,37,27,24,20,60,46,28,0.00,40.00,16,11,25,0.00
2013-4-12,45,39,32,32,28,24,79,66,51,0.00,40.00,20,11,27,0.00
2013-4-13,49,39,30,29,19,9,82,47,27,0.00,40.00,24,13,41,0.00
2013-4-14,45,36,28,31,23,15,87,61,41,0.00,40.00,13,6,20,0.00
2013-4-15,44,37,32,34,28,16,100,75,38,0.00,40.00,11,8,20,0.08
2013-4-16,46,37,28,27,18,11,83,49,28,0.00,40.00,14,9,25,0.06
2013-4-17,52,41,29,26,21,10,70,47,30,0.00,40.00,11,6,21,0.00
2013-4-18,55,45,30,36,29,21,72,54,40,0.00,40.00,11,5,19,0.00
2013-4-19,58,49,42,39,34,28,76,57,40,0.00,40.00,17,9,24,0.00
2013-4-20,59,49,38,34,29,25,71,48,31,0.00,40.00,20,12,30,0.00
2013-4-21,45,39,35,34,24,13,81,57,33,0.00,40.00,26,18,34,0.00
2013-4-22,53,42,28,17,13,7,53,32,17,0.00,40.00,16,9,23,0.00
2013-4-23,56,44,33,27,22,14,60,42,30,0.00,40.00,18,10,32,0.00
2013-4-24,62,51,37,28,25,22,64,39,23,0.00,40.00,10,7,19,0.00
2013-4-25,68,56,41,35,30,23,57,37,24,0.00,40.00,13,6,20,0.00
2013-4-26,71,59,48,41,33,21,62,39,19,0.00,40.00,12,6,23,0.00
2013-4-27,66,55,47,35,30,22,49,38,25,0.00,40.00,17,9,30,0.00
2013-4-28,59,49,38,32,28,19,74,47,24,0.00,40.00,17,8,26,0.00
2013-4-29,48,42,36,29,23,11,71,49,22,0.00,40.00,23,12,36,0.00
2013-4-30,48,42,30,24,18,13,53,40,27,0.00,40.00,18,11,26,0.00
2013-5-1,57,44,28,22,19,12,68,38,23,0.00,40.00,10,6,24,0.00
2013-5-2,64,53,40,30,26,20,47,35,26,0.00,40.00,16,8,22,0.00
2013-5-3,66,55,45,39,35,29,72,49,28,0.00,40.00,23,18,36,0.00
2013-5-4,70,60,47,37,34,29,60,39,26,0.00,40.00,17,13,25,0.00
2013-5-5,76,61,44,35,31,25,61,34,20,0.00,40.00,13,8,19,0.00
2013-5-6,79,67,51,37,35,28,55,33,21,0.00,40.00,15,7,20,0.00
2013-5-7,83,70,48,44,38,27,55,33,24,0.00,40.00,17,7,25,0.00
2013-5-8,81,69,53,47,41,32,56,38,26,0.00,40.00,9,6,14,0.00
2013-5-9,82,69,60,43,33,25,42,27,19,0.00,40.00,18,10,24,0.00
2013-5-10,83,70,55,45,35,-100,44,30,20,0.00,40.00,12,7,19,0.00
2013-5-11,80,69,53,48,38,-100,54,34,23,0.00,40.00,11,5,15,0.00
2013-5-12,69,65,57,52,43,36,60,46,34,0.00,40.00,19,11,29,0.00
2013-5-13,62,55,43,47,39,25,72,56,40,0.00,40.00,30,13,41,0.02
2013-5-14,61,50,38,35,28,21,71,45,24,0.00,40.00,9,6,21,0.02
2013-5-15,63,52,36,37,32,21,71,47,33,0.00,40.00,13,7,20,0.00
2013-5-16,66,49,45,52,20,-100,84,61,43,0.00,40.00,13,6,23,0.27
2013-5-17,67,54,44,48,38,-100,91,68,42,0.00,40.00,16,6,22,0.25
2013-5-18,61,52,49,53,46,43,95,82,59,0.00,40.00,9,6,14,0.17
2013-5-19,68,56,47,45,42,38,88,62,37,0.00,40.00,15,9,21,0.02
2013-5-20,69,58,44,47,42,37,83,59,38,0.00,40.00,16,7,23,0.02
2013-5-21,60,51,44,48,43,39,96,76,53,0.00,40.00,13,8,23,0.24
2013-5-22,44,42,37,43,38,33,98,89,71,0.00,40.00,12,8,21,0.18
2013-5-23,53,44,38,38,36,33,93,75,53,0.00,40.00,11,6,19,0.03
2013-5-24,54,45,36,44,37,32,88,76,52,0.00,40.00,11,8,20,0.43
2013-5-25,58,49,39,44,39,35,93,70,51,0.00,40.00,11,6,16,0.06
2013-5-26,63,54,40,46,40,31,86,60,44,0.00,40.00,10,6,21,0.00
2013-5-27,58,52,46,48,44,40,100,77,55,0.00,40.00,16,9,22,0.11
2013-5-28,62,52,44,49,47,44,100,82,54,0.00,40.00,13,6,19,0.11
2013-5-29,53,50,46,48,44,42,100,83,70,0.00,40.00,10,5,15,0.09
2013-5-30,63,52,41,47,39,34,100,64,37,0.00,40.00,11,6,18,0.05
2013-5-31,66,55,44,40,36,33,76,52,31,0.00,40.00,14,9,20,0.00
2013-6-1,68,57,48,44,39,31,71,50,34,0.00,40.00,17,6,24,0.00
2013-6-2,65,55,47,46,42,38,85,62,40,0.00,40.00,19,14,30,0.00
2013-6-3,69,57,43,45,41,37,81,58,35,0.00,40.00,13,8,22,0.00
2013-6-4,75,62,48,49,44,32,81,54,22,0.00,40.00,9,6,14,0.03
2013-6-5,80,67,55,50,45,40,66,47,29,0.00,40.00,9,6,15,0.03
2013-6-6,81,70,58,46,41,34,55,37,20,0.00,40.00,16,9,22,0.00
2013-6-7,77,66,56,49,38,19,53,37,20,0.00,40.00,18,9,27,0.00
2013-6-8,79,63,48,43,36,22,65,40,22,0.00,40.00,17,10,26,0.00
2013-6-9,73,61,48,39,36,29,64,41,24,0.00,40.00,14,9,23,0.00
2013-6-10,74,63,52,42,37,31,56,40,27,0.00,40.00,22,10,30,0.00
2013-6-11,70,58,46,45,38,34,64,48,32,0.00,40.00,15,9,25,0.00
2013-6-12,67,57,45,40,36,30,69,48,27,0.00,40.00,13,9,24,0.00
2013-6-13,68,55,44,42,38,33,85,56,30,0.00,40.00,18,11,25,0.14
2013-6-14,71,58,43,45,39,36,88,54,31,0.00,40.00,12,6,21,0.14
2013-6-15,76,62,43,45,39,33,80,46,23,0.00,40.00,8,5,15,0.00
2013-6-16,83,69,52,48,41,35,61,39,22,0.00,40.00,15,8,19,0.00
2013-6-17,78,66,56,55,46,40,79,51,27,0.00,40.00,16,11,32,0.01
2013-6-18,64,57,50,51,49,42,91,75,45,0.00,40.00,14,7,22,0.01
2013-6-19,57,52,48,51,48,44,94,86,76,0.00,40.00,11,7,16,0.12
2013-6-20,53,49,47,47,46,45,95,90,81,0.00,40.00,10,8,16,0.45
2013-6-22,70,63,57,54,50,47,82,62,50,0.00,40.00,12,8,18,0.00
2013-6-23,72,63,51,52,49,44,78,61,44,0.00,40.00,9,5,15,0.00
2013-6-24,60,56,53,57,54,50,99,92,81,0.00,40.00,11,8,19,0.20
2013-6-25,63,56,49,55,51,48,99,86,60,0.00,40.00,13,7,20,0.02
2013-6-26,69,60,49,54,50,48,98,75,48,0.00,40.00,14,9,21,0.02
2013-6-27,71,61,53,60,54,50,93,79,55,0.00,40.00,10,5,14,0.02
2013-6-28,83,70,56,60,56,52,92,64,41,0.00,40.00,9,5,15,0.01
2013-6-29,78,69,61,63,58,54,86,70,55,0.00,40.00,17,9,25,0.00
2013-6-30,90,75,60,61,56,47,91,58,26,0.00,40.00,13,7,17,0.00
2013-7-1,93,77,62,68,56,47,69,52,27,0.00,40.00,12,7,18,0.00
2013-7-2,98,82,62,64,53,42,80,41,17,0.00,40.00,16,8,26,0.00
2013-7-3,88,76,67,52,44,38,53,34,18,0.00,40.00,19,9,25,0.00
2013-7-4,85,73,62,45,40,35,52,32,18,0.00,40.00,14,9,19,0.00
2013-7-5,83,70,60,47,42,37,51,37,25,0.00,40.00,20,14,30,0.00
2013-7-6,84,70,62,45,41,37,50,36,23,0.00,40.00,20,13,29,0.00
2013-7-7,84,70,61,50,42,38,68,39,20,0.00,40.00,18,12,29,0.00
2013-7-8,84,67,56,52,47,-100,84,55,26,0.00,40.00,16,10,25,0.10
2013-7-9,88,74,54,59,46,39,74,42,19,0.00,40.00,11,6,19,0.01
2013-7-10,89,74,64,51,37,-100,48,29,16,0.00,40.00,19,10,28,0.00
2013-7-11,79,68,58,39,30,18,42,27,12,0.00,40.00,15,9,22,0.00
2013-7-12,69,61,52,37,32,21,47,35,19,0.00,40.00,16,10,26,0.00
2013-7-13,78,65,47,42,36,26,68,38,15,0.00,40.00,12,7,17,0.00
2013-7-14,85,70,48,44,34,23,64,30,13,0.00,40.00,15,8,24,0.00
2013-7-15,77,65,54,41,37,34,54,37,22,0.00,40.00,25,20,37,0.00
2013-7-16,87,80,70,45,42,39,40,27,21,0.00,40.00,17,13,28,0.00
2013-7-17,87,73,58,59,50,40,82,47,23,0.00,40.00,18,11,26,0.17
2013-7-18,89,76,61,56,50,42,80,45,21,0.00,40.00,18,10,26,0.01
2013-7-19,93,79,67,52,42,29,54,32,12,0.00,40.00,14,8,18,0.00
2013-7-20,94,79,68,44,32,-100,39,22,7,0.00,40.00,15,8,20,0.00
2013-7-21,94,78,64,47,42,35,46,30,13,0.00,40.00,15,8,20,0.00
2013-7-22,93,78,63,46,40,32,47,29,12,0.00,40.00,14,8,19,0.00
2013-7-23,94,77,63,46,40,27,44,29,9,0.00,40.00,16,9,23,0.00
2013-7-24,95,80,65,43,35,17,37,23,6,0.00,40.00,16,9,22,0.00
2013-7-25,97,79,60,42,33,24,43,22,8,0.00,40.00,14,6,21,0.00
2013-7-26,94,81,66,33,28,23,26,16,8,0.00,40.00,15,10,27,0.00
2013-7-27,85,74,60,41,35,24,45,25,14,0.00,40.00,16,8,23,0.00
2013-7-28,84,72,63,41,37,33,38,29,17,0.00,40.00,21,15,32,0.00
2013-7-29,85,71,62,43,39,34,44,33,16,0.00,40.00,20,15,30,0.00
2013-7-30,87,74,64,41,37,32,38,28,16,0.00,40.00,16,11,26,0.00
2013-7-31,88,74,63,45,39,30,43,30,13,0.00,40.00,15,10,31,0.00
2013-8-1,85,68,57,56,49,43,95,58,23,0.00,40.00,16,9,26,0.18
2013-8-2,71,62,57,61,56,51,98,85,50,0.00,40.00,9,4,14,0.99
2013-8-3,78,66,56,60,55,50,98,71,41,0.00,40.00,9,5,15,0.19
2013-8-4,83,67,54,58,53,45,91,65,30,0.00,40.00,13,6,22,0.01
2013-8-5,88,72,58,55,50,38,84,51,17,0.00,40.00,12,8,16,0.01
2013-8-6,91,76,60,52,44,33,66,37,15,0.00,40.00,11,7,22,0.00
2013-8-7,92,76,63,48,41,33,45,30,16,0.00,40.00,14,8,20,0.00
2013-8-8,92,78,67,48,44,39,47,32,18,0.00,40.00,18,9,24,0.00
2013-8-9,92,79,63,49,46,39,46,33,20,0.00,40.00,15,7,21,0.00
2013-8-10,88,76,62,60,53,45,90,48,26,0.00,40.00,10,6,15,0.11
2013-8-11,83,71,59,61,54,50,91,57,32,0.00,40.00,20,6,32,0.03
2013-8-12,86,72,57,58,49,43,86,51,22,0.00,40.00,10,6,20,0.02
2013-8-13,88,72,56,53,43,-100,73,40,20,0.00,40.00,11,7,18,0.00
2013-8-14,90,73,58,52,41,-100,60,36,19,0.00,40.00,9,4,16,0.00
2013-8-15,85,68,66,54,35,-100,55,37,27,0.00,40.00,12,7,21,0.00
2013-8-16,83,67,59,56,46,-100,88,54,26,0.00,40.00,14,8,18,0.00
2013-8-17,81,70,60,52,44,-100,64,42,26,0.00,40.00,12,8,21,0.00
2013-8-18,85,70,57,46,42,38,67,39,19,0.00,40.00,13,10,20,0.00
2013-8-19,81,64,52,46,32,-100,62,38,23,0.00,40.00,13,7,20,0.00
2013-8-20,81,64,53,41,35,-100,57,37,20,0.00,40.00,16,10,25,0.00
2013-8-21,85,69,57,41,37,30,50,33,16,0.00,40.00,17,10,25,0.00
2013-8-22,87,74,59,41,35,28,44,26,12,0.00,40.00,15,8,19,0.00
2013-8-23,80,69,57,54,46,33,77,46,23,0.00,40.00,9,6,15,0.02
2013-8-24,79,64,55,55,46,-100,87,57,25,0.00,40.00,12,8,22,0.01
2013-8-25,78,66,55,54,44,40,91,47,27,0.00,40.00,12,7,36,0.05
2013-8-26,72,60,53,57,52,47,98,77,47,0.00,40.00,16,8,23,0.05
2013-8-27,74,61,53,52,49,43,87,66,40,0.00,40.00,9,6,15,0.00
2013-8-28,82,75,65,51,48,44,59,39,28,0.00,40.00,11,8,20,0.00
2013-8-29,78,66,60,61,54,50,90,67,43,0.00,40.00,13,8,26,0.32
2013-8-30,77,65,52,56,48,35,93,59,28,0.00,40.00,11,6,18,0.32
2013-8-31,81,66,55,47,42,-100,63,45,28,0.00,40.00,14,9,20,0.00
2013-9-1,89,72,55,48,44,38,65,40,19,0.00,40.00,13,8,17,0.00
2013-9-2,82,72,59,48,45,35,57,39,27,0.00,40.00,15,9,21,0.00
2013-9-3,84,71,57,55,48,39,72,46,23,0.00,40.00,17,9,25,0.00
2013-9-4,78,68,59,58,53,40,91,61,45,0.00,40.00,19,14,27,0.08
2013-9-5,78,69,61,59,57,51,93,66,46,0.00,40.00,17,12,25,0.11
2013-9-6,67,59,52,61,55,50,98,88,55,0.00,40.00,14,6,21,0.43
2013-9-7,64,54,50,57,49,-100,98,86,64,0.00,40.00,8,4,11,0.18
2013-9-8,78,63,49,55,51,48,96,69,40,0.00,40.00,6,4,12,0.01
2013-9-9,82,68,52,55,50,43,92,57,27,0.00,40.00,13,6,19,0.00
2013-9-10,84,72,59,53,48,42,74,46,27,0.00,40.00,16,10,20,0.00
2013-9-11,87,74,63,49,45,38,52,37,25,0.00,40.00,19,12,24,0.00
2013-9-12,90,78,67,51,47,44,49,36,22,0.00,40.00,15,8,20,0.00
2013-9-13,90,77,63,50,47,41,61,37,23,0.00,40.00,18,12,23,0.00
2013-9-14,88,76,67,50,44,-100,49,34,23,0.00,40.00,14,9,20,0.00
2013-9-15,81,71,59,55,48,45,87,46,28,0.00,40.00,26,8,40,0.16
2013-9-16,71,61,52,57,50,41,91,69,43,0.00,40.00,13,7,34,0.16
2013-9-17,69,58,52,48,46,41,79,63,44,0.00,40.00,16,10,22,0.00
2013-9-18,54,50,47,46,40,33,82,69,44,0.00,40.00,8,4,16,0.00
2013-9-19,69,55,41,43,38,32,82,55,33,0.00,40.00,12,6,19,0.00
2013-9-20,72,58,45,43,36,32,73,48,26,0.00,40.00,10,6,17,0.00
2013-9-21,70,58,50,46,38,-100,66,49,25,0.00,40.00,15,8,24,0.00
2013-9-22,59,50,42,48,40,33,96,70,42,0.00,40.00,19,10,27,0.11
2013-9-23,58,49,41,44,39,35,96,71,47,0.00,40.00,23,12,31,0.07
2013-9-24,60,49,39,44,36,28,92,65,36,0.00,40.00,11,7,16,0.00
2013-9-25,61,49,42,40,33,28,81,55,29,0.00,40.00,24,16,32,0.00
2013-9-26,59,48,40,42,38,32,94,72,39,0.00,40.00,18,12,26,0.03
2013-9-27,52,45,38,42,37,29,88,74,59,0.00,40.00,14,7,20,0.03
2013-9-28,57,49,44,53,44,-100,98,89,72,0.00,40.00,28,16,43,0.21
2013-9-29,53,47,41,45,39,34,92,75,57,0.00,40.00,23,16,34,0.12
2013-9-30,56,47,39,45,36,28,94,67,49,0.00,40.00,23,15,34,0.09
2013-10-1,51,46,40,29,28,26,58,51,39,0.00,40.00,14,8,22,0.00
2013-10-2,44,40,34,40,34,26,95,82,58,0.00,40.00,11,6,15,0.05
2013-10-3,56,44,37,38,33,24,97,69,30,0.00,40.00,18,14,30,0.02
2013-10-4,58,45,33,34,31,28,83,59,34,0.00,40.00,11,7,17,0.00
2013-10-5,58,49,41,36,32,29,68,53,38,0.00,40.00,12,7,20,0.00
2013-10-6,64,51,40,38,33,27,75,51,33,0.00,40.00,9,5,16,0.00
2013-10-7,60,50,42,40,32,26,67,51,31,0.00,40.00,20,10,31,0.00
2013-10-8,52,43,35,39,31,25,87,63,41,0.00,40.00,18,9,27,0.01
2013-10-9,57,46,38,32,29,26,70,53,33,0.00,40.00,16,10,21,0.01
2013-10-10,56,47,35,36,30,26,80,54,34,0.00,40.00,15,8,22,0.00
2013-10-11,53,44,35,30,28,25,73,53,36,0.00,40.00,10,7,16,0.00
2013-10-12,53,44,40,35,30,-100,74,60,46,0.00,40.00,17,10,22,0.00
2013-10-13,54,45,37,33,28,24,75,54,31,0.00,40.00,17,12,25,0.00
2013-10-14,57,45,36,31,28,25,71,53,30,0.00,40.00,16,10,23,0.00
2013-10-15,55,44,33,34,30,25,83,59,37,0.00,40.00,11,7,18,0.00
2013-10-16,58,48,39,38,33,28,84,58,38,0.00,40.00,19,12,26,0.00
2013-10-17,58,46,37,35,32,28,81,59,35,0.00,40.00,17,11,26,0.00
2013-10-18,59,47,34,37,33,28,86,62,38,0.00,40.00,12,6,14,0.00
2013-10-19,59,46,33,38,32,-100,88,64,41,0.00,40.00,8,5,11,0.00
2013-10-20,68,53,41,39,36,33,79,56,31,0.00,40.00,11,9,18,0.00
2013-10-21,68,55,45,43,39,33,76,57,37,0.00,40.00,11,6,14,0.00
2013-10-22,64,50,37,45,38,33,92,68,42,0.00,40.00,9,5,14,0.00
2013-10-23,64,48,40,44,39,36,90,74,45,0.00,40.00,11,7,13,0.00
2013-10-24,63,47,37,43,38,34,93,74,42,0.00,40.00,9,6,12,0.00
2013-10-25,59,45,38,42,38,34,92,78,54,0.00,40.00,8,6,10,0.00
2013-10-26,59,44,36,42,36,-100,98,79,54,0.00,40.00,10,6,16,0.00
2013-10-27,46,42,37,40,38,34,96,84,69,0.00,40.00,30,18,41,0.06
2013-10-28,47,40,37,34,22,-100,72,51,34,0.00,40.00,24,18,36,0.01
2013-10-29,49,40,34,24,22,19,62,49,33,0.00,40.00,17,10,27,0.00
2013-10-30,47,36,27,25,22,18,78,56,40,0.00,40.00,8,6,13,0.00
2013-10-31,56,43,31,32,27,23,74,54,37,0.00,40.00,15,7,21,0.00
2013-11-1,49,42,32,37,30,19,70,61,49,0.00,40.00,11,6,15,0.00
2013-11-2,49,42,36,45,34,-100,98,79,60,0.00,40.00,20,11,29,0.28
2013-11-3,44,34,25,35,28,19,97,80,52,0.00,40.00,12,6,25,0.01
2013-11-4,42,32,23,24,20,17,82,62,41,0.00,40.00,13,7,19,0.00
2013-11-5,33,31,29,30,28,19,97,89,59,0.00,40.00,11,6,15,0.02
2013-11-6,34,32,29,31,29,27,94,91,88,0.00,40.00,8,4,12,0.01
2013-11-7,35,33,31,34,32,29,98,97,94,0.00,40.00,9,4,15,0.29
2013-11-8,46,36,28,38,31,26,98,86,52,0.00,40.00,12,6,16,0.23
2013-11-9,36,32,24,35,29,-100,97,93,90,0.00,40.00,7,4,9,0.10
2013-11-10,36,35,34,35,34,33,98,96,93,0.00,40.00,15,10,24,0.20
2013-11-11,43,37,35,36,34,33,95,88,74,0.00,40.00,16,10,21,0.01
2013-11-12,39,38,35,39,37,33,99,96,92,0.00,40.00,12,7,17,0.02
2013-11-13,46,40,37,42,39,36,99,95,82,0.00,40.00,8,5,12,0.01
2013-11-14,49,39,32,40,35,31,98,87,49,0.00,40.00,9,4,11,0.01
2013-11-15,36,33,28,33,30,27,98,89,73,0.00,40.00,13,8,19,0.00
2013-11-16,45,33,24,32,25,-100,95,76,44,0.00,40.00,11,7,18,0.00
2013-11-17,41,32,22,33,27,19,90,82,69,0.00,40.00,17,8,26,0.00
2013-11-18,42,39,34,40,36,31,93,89,86,0.00,40.00,18,11,26,0.00
2013-11-19,51,40,26,40,28,12,95,65,28,0.00,40.00,26,13,39,0.00
2013-11-20,27,20,14,12,0,-8,62,42,22,0.00,40.00,31,14,41,0.00
2013-11-21,32,20,12,8,6,3,72,54,33,0.00,40.00,10,7,14,0.00
2013-11-22,34,21,14,14,8,4,73,59,32,0.00,40.00,8,6,11,0.00
2013-11-23,36,24,14,14,9,-100,79,58,35,0.00,40.00,8,5,11,0.00
2013-11-24,37,28,21,18,14,7,67,55,43,0.00,40.00,7,4,11,0.00
2013-11-25,38,29,23,21,18,14,85,65,48,0.00,40.00,7,5,12,0.00
2013-11-26,39,29,22,27,21,17,85,74,60,0.00,40.00,6,3,7,0.00
2013-11-27,42,28,20,28,21,16,89,77,52,0.00,40.00,8,5,10,0.00
2013-11-28,39,29,20,29,23,17,93,81,58,0.00,40.00,8,5,12,0.00
2013-11-29,29,27,24,28,26,21,97,95,84,0.00,40.00,6,4,9,0.00
2013-11-30,30,29,28,29,26,-100,98,96,97,0.00,40.00,7,4,10,0.00
2013-12-1,34,31,28,34,30,27,99,98,97,0.00,40.00,10,6,17,0.04
2013-12-2,33,27,18,33,18,6,99,69,51,0.00,40.00,32,14,45,0.01
2013-12-3,22,18,15,7,5,4,65,58,47,0.00,40.00,34,25,46,0.00
2013-12-4,19,14,8,5,2,-1,70,60,46,0.00,40.00,23,16,34,0.00
2013-12-5,14,9,5,1,-1,-3,71,65,51,0.00,40.00,17,12,26,0.00
2013-12-6,15,10,6,3,0,-3,74,65,49,0.00,40.00,25,18,37,0.00
2013-12-7,11,6,3,-2,-8,-100,69,54,34,0.00,40.00,25,20,37,0.00
2013-12-8,19,8,2,1,-3,-9,72,61,43,0.00,40.00,13,6,16,0.00
2013-12-9,16,9,3,1,-1,-4,76,63,49,0.00,40.00,11,5,16,0.00
2013-12-10,26,15,5,8,4,-2,75,61,42,0.00,40.00,6,4,9,0.00
2013-12-11,24,19,10,19,15,4,92,85,74,0.00,40.00,5,2,9,0.00
2013-12-12,27,21,17,22,18,14,93,87,75,0.00,40.00,10,4,13,0.00
2013-12-13,28,22,15,25,19,12,93,90,81,0.00,40.00,5,3,9,0.00
2013-12-14,32,28,23,32,25,-100,99,94,88,0.00,40.00,13,6,19,0.00
2013-12-15,32,29,23,32,29,22,99,98,95,0.00,40.00,10,5,16,0.00
2013-12-16,34,27,26,34,20,-100,98,91,94,0.00,40.00,6,3,10,0.01
2013-12-17,32,29,23,31,28,22,99,97,95,0.00,40.00,10,4,14,0.01
2013-12-18,30,27,24,30,22,8,99,84,46,0.00,40.00,27,11,40,0.01
2013-12-19,24,21,18,9,2,-2,53,43,32,0.00,40.00,27,14,39,0.00
2013-12-20,20,19,14,18,12,1,92,75,42,0.00,40.00,11,6,16,0.00
2013-12-21,32,20,12,23,14,-100,93,82,67,0.00,40.00,9,4,14,0.02
2013-12-22,29,24,17,27,21,15,98,89,79,0.00,40.00,7,4,9,0.01
2013-12-23,30,28,21,30,27,19,99,97,89,0.00,40.00,12,6,15,0.00
2013-12-24,36,27,20,30,24,17,96,88,74,0.00,40.00,7,5,15,0.04
2013-12-25,30,26,21,27,24,19,96,94,89,0.00,40.00,6,3,8,0.04
2013-12-26,29,26,20,27,25,19,97,95,91,0.00,40.00,5,3,7,0.00
2013-12-27,29,25,18,28,24,17,98,96,92,0.00,40.00,9,4,13,0.00
2013-12-28,40,26,22,30,21,-100,97,84,60,0.00,40.00,9,4,9,0.01
2013-12-29,26,23,19,25,22,18,96,95,87,0.00,40.00,7,4,9,0.01
2013-12-30,29,26,23,28,25,22,97,96,95,0.00,40.00,6,2,9,0.00
2013-12-31,35,26,19,34,26,17,98,97,92,0.00,40.00,5,3,9,0.03
2014-1-1,29,23,17,29,22,15,98,94,90,0.00,40.00,8,4,11,0.00
2014-1-2,30,27,27,30,19,-100,99,91,97,0.00,40.00,9,5,12,0.00